QPF
0.00 0.00 0.01 0.01 0.01 0.00 0.01 0.02 0.03 0.02 0.03 0.03 0.03 0.04 0.03 0.02 0.02 0.03 0.03 0.03 0.02 0.01 0.01 0.01 0.00 0.00 0.00 0.00 0.00 0.00 0.00 0.01 0.00 0.00 0.00 0.01 0.01 0.02 0.02 0.02 0.03 0.02 0.02
0.00 0.00 0.00 0.01 0.00 0.00 0.00 0.00 0.01 0.01 0.02 0.01 0.02 0.02 0.02 0.01 0.01 0.01 0.02 0.02 0.01 0.01 0.01 0.01 0.00 0.00 0.00 0.00 0.00 0.00 0.00 0.00 0.00 0.00 0.00 0.00 0.00 0.01 0.01 0.01 0.02 0.02 0.02
0.00 0.01 0.00 0.00 0.00 0.00 0.00 0.00 0.00 0.01 0.01 0.01 0.01 0.01 0.01 0.01 0.01 0.01 0.01 0.01 0.01 0.01 0.01 0.00 0.00 0.00 0.00 0.00 0.00 0.01 0.00 0.00 0.00 0.00 0.00 0.00 0.00 0.01 0.01 0.01 0.02 0.03 0.03
0.00 0.01 0.00 0.00 0.00 0.00 0.00 0.00 0.00 0.00 0.01 0.01 0.01 0.02 0.01 0.01 0.01 0.01 0.01 0.02 0.02 0.02 0.01 0.00 0.00 0.00 0.00 0.00 0.00 0.00 0.01 0.01 0.01 0.00 0.00 0.00 0.00 0.00 0.00 0.00 0.00 0.01 0.03
0.00 0.01 0.01 0.00 0.00 0.00 0.00 0.00 0.00 0.00 0.01 0.01 0.01 0.02 0.02 0.01 0.01 0.01 0.01 0.01 0.02 0.02 0.02 0.01 0.00 0.00 0.00 0.00 0.00 0.00 0.01 0.01 0.01 0.01 0.01 0.01 0.00 0.00 0.00 0.01 0.01 0.01 0.02
0.00 0.01 0.01 0.01 0.01 0.01 0.00 0.00 0.00 0.00 0.01 0.01 0.01 0.02 0.02 0.01 0.01 0.01 0.01 0.02 0.02 0.02 0.02 0.02 0.00 0.00 0.00 0.00 0.00 0.00 0.01 0.01 0.01 0.01 0.01 0.01 0.01 0.01 0.01 0.01 0.01 0.01 0.01
0.00 0.00 0.01 0.01 0.01 0.01 0.00 0.00 0.00 0.01 0.01 0.02 0.02 0.01 0.02 0.02 0.02 0.02 0.02 0.02 0.02 0.02 0.02 0.02 0.01 0.01 0.00 0.00 0.00 0.00 0.00 0.01 0.01 0.01 0.01 0.01 0.01 0.01 0.01 0.01 0.01 0.02 0.03
0.00 0.00 0.00 0.00 0.00 0.00 0.00 0.00 0.00 0.01 0.01 0.01 0.01 0.01 0.01 0.01 0.02 0.02 0.03 0.03 0.02 0.02 0.02 0.02 0.02 0.02 0.00 0.00 0.00 0.00 0.01 0.01 0.01 0.01 0.01 0.01 0.01 0.01 0.02 0.02 0.02 0.02 0.03
0.00 0.00 0.00 0.01 0.00 0.00 0.00 0.01 0.01 0.02 0.02 0.02 0.02 0.02 0.02 0.01 0.01 0.01 0.01 0.02 0.02 0.02 0.02 0.02 0.03 0.03 0.01 0.00 0.00 0.00 0.01 0.02 0.02 0.02 0.01 0.01 0.01 0.01 0.01 0.02 0.02 0.03 0.03
0.00 0.00 0.00 0.00 0.01 0.01 0.01 0.01 0.02 0.02 0.02 0.02 0.02 0.03 0.02 0.02 0.02 0.02 0.01 0.01 0.01 0.01 0.02 0.02 0.02 0.02 0.02 0.01 0.01 0.01 0.01 0.02 0.02 0.02 0.02 0.02 0.01 0.01 0.01 0.02 0.03 0.03 0.03
0.00 0.00 0.00 0.00 0.00 0.01 0.02 0.02 0.02 0.02 0.02 0.03 0.03 0.04 0.03 0.03 0.03 0.02 0.02 0.02 0.01 0.01 0.01 0.01 0.01 0.02 0.03 0.02 0.01 0.01 0.01 0.01 0.01 0.02 0.03 0.04 0.05 0.04 0.03 0.03 0.03 0.03 0.03
0.01 0.00 0.00 0.00 0.00 0.01 0.03 0.03 0.02 0.02 0.02 0.04 0.04 0.04 0.04 0.04 0.04 0.04 0.03 0.03 0.02 0.02 0.01 0.01 0.01 0.02 0.02 0.03 0.02 0.02 0.01 0.02 0.02 0.02 0.03 0.04 0.06 0.05 0.04 0.03 0.03 0.02 0.02
0.01 0.01 0.00 0.00 0.01 0.01 0.02 0.03 0.03 0.03 0.03 0.03 0.03 0.03 0.04 0.05 0.04 0.04 0.05 0.04 0.04 0.03 0.03 0.02 0.02 0.01 0.02 0.02 0.02 0.02 0.01 0.02 0.03 0.03 0.03 0.03 0.03 0.03 0.03 0.03 0.03 0.02 0.01
0.01 0.01 0.00 0.00 0.01 0.01 0.02 0.03 0.03 0.03 0.03 0.03 0.03 0.02 0.03 0.03 0.03 0.04 0.04 0.04 0.04 0.04 0.05 0.05 0.04 0.03 0.02 0.02 0.02 0.03 0.02 0.02 0.02 0.03 0.03 0.03 0.03 0.03 0.03 0.02 0.02 0.02 0.01
0.01 0.00 0.00 0.00 0.00 0.01 0.02 0.02 0.03 0.03 0.03 0.04 0.04 0.03 0.02 0.02 0.02 0.03 0.03 0.03 0.04 0.04 0.04 0.04 0.04 0.03 0.03 0.03 0.02 0.03 0.03 0.02 0.02 0.01 0.02 0.02 0.02 0.03 0.03 0.03 0.02 0.02 0.02
0.03 0.01 0.00 0.00 0.00 0.00 0.01 0.02 0.02 0.02 0.02 0.03 0.04 0.03 0.03 0.03 0.02 0.02 0.02 0.02 0.02 0.03 0.03 0.02 0.02 0.02 0.02 0.02 0.02 0.02 0.02 0.02 0.02 0.01 0.01 0.01 0.02 0.03 0.03 0.03 0.03 0.02 0.02
0.01 0.02 0.01 0.01 0.00 0.00 0.00 0.01 0.01 0.01 0.02 0.02 0.03 0.03 0.03 0.02 0.02 0.02 0.02 0.01 0.01 0.02 0.03 0.03 0.03 0.02 0.02 0.02 0.02 0.02 0.02 0.02 0.02 0.02 0.02 0.02 0.02 0.02 0.02 0.02 0.03 0.02 0.03
0.00 0.01 0.01 0.01 0.01 0.01 0.01 0.00 0.01 0.00 0.00 0.01 0.01 0.02 0.03 0.03 0.03 0.02 0.02 0.01 0.01 0.01 0.02 0.03 0.03 0.03 0.03 0.04 0.04 0.03 0.03 0.03 0.02 0.02 0.02 0.02 0.02 0.02 0.02 0.01 0.01 0.02 0.03
0.01 0.01 0.01 0.01 0.01 0.01 0.01 0.00 0.01 0.01 0.01 0.01 0.01 0.01 0.02 0.02 0.03 0.03 0.03 0.03 0.02 0.02 0.01 0.02 0.02 0.02 0.03 0.04 0.04 0.04 0.04 0.03 0.02 0.02 0.02 0.02 0.01 0.02 0.01 0.01 0.01 0.02 0.02
0.01 0.01 0.01 0.01 0.01 0.01 0.01 0.00 0.01 0.01 0.01 0.01 0.01 0.00 0.01 0.02 0.02 0.02 0.03 0.03 0.03 0.03 0.02 0.02 0.02 0.02 0.02 0.03 0.03 0.03 0.04 0.04 0.03 0.03 0.03 0.03 0.02 0.02 0.01 0.01 0.01 0.02 0.02
0.01 0.02 0.02 0.01 0.01 0.01 0.01 0.01 0.01 0.01 0.01 0.01 0.00 0.00 0.00 0.01 0.02 0.02 0.02 0.02 0.02 0.02 0.03 0.03 0.03 0.02 0.02 0.03 0.03 0.03 0.04 0.04 0.04 0.03 0.03 0.02 0.02 0.02 0.02 0.02 0.01 0.02 0.02
0.00 0.01 0.02 0.01 0.01 0.01 0.01 0.01 0.01 0.01 0.01 0.01 0.00 0.00 0.01 0.01 0.02 0.02 0.02 0.01 0.01 0.01 0.01 0.01 0.02 0.03 0.03 0.04 0.03 0.03 0.03 0.03 0.03 0.02 0.02 0.02 0.02 0.02 0.02 0.02 0.02 0.02 0.02
0.00 0.00 0.01 0.01 0.01 0.01 0.01 0.01 0.01 0.01 0.01 0.01 0.00 0.00 0.01 0.02 0.03 0.02 0.02 0.02 0.02 0.01 0.01 0.01 0.00 0.01 0.01 0.02 0.02 0.03 0.03 0.03 0.03 0.03 0.03 0.03 0.03 0.02 0.02 0.02 0.02 0.02 0.01
0.00 0.00 0.01 0.02 0.01 0.01 0.01 0.01 0.01 0.01 0.01 0.01 0.00 0.00 0.00 0.01 0.03 0.03 0.02 0.02 0.02 0.02 0.01 0.01 0.01 0.01 0.01 0.01 0.01 0.02 0.02 0.03 0.03 0.03 0.03 0.03 0.02 0.02 0.02 0.03 0.03 0.02 0.02
0.00 0.00 0.01 0.02 0.01 0.01 0.00 0.00 0.01 0.01 0.01 0.01 0.01 0.00 0.00 0.01 0.02 0.03 0.02 0.02 0.01 0.02 0.02 0.02 0.01 0.01 0.01 0.01 0.01 0.01 0.02 0.03 0.03 0.03 0.02 0.02 0.02 0.02 0.02 0.02 0.03 0.03 0.03
0.01 0.00 0.01 0.01 0.01 0.01 0.00 0.00 0.00 0.00 0.01 0.01 0.01 0.01 0.00 0.00 0.01 0.02 0.02 0.02 0.02 0.02 0.02 0.01 0.01 0.01 0.01 0.01 0.01 0.01 0.01 0.02 0.03 0.02 0.02 0.02 0.02 0.02 0.02 0.03 0.03 0.03 0.03
MSLP
1020.19 1020.30 1020.39 1020.45 1020.46 1020.43 1020.38 1020.33 1020.29 1020.30 1020.34 1020.41 1020.51 1020.60 1020.66 1020.68 1020.64 1020.55 1020.41 1020.24 1020.06 1019.89 1019.73 1019.59 1019.47 1019.36 1019.24 1019.10 1018.92 1018.71 1018.44 1018.13 1017.76 1017.35 1016.90 1016.41 1015.88 1015.34 1014.80 1014.27 1013.77 1013.31 1012.91
1019.64 1019.83 1019.99 1020.09 1020.13 1020.10 1020.05 1020.01 1020.01 1020.06 1020.19 1020.36 1020.56 1020.74 1020.87 1020.93 1020.91 1020.80 1020.63 1020.43 1020.23 1020.06 1019.92 1019.82 1019.75 1019.68 1019.61 1019.51 1019.36 1019.17 1018.93 1018.64 1018.31 1017.95 1017.55 1017.12 1016.66 1016.17 1015.65 1015.12 1014.59 1014.09 1013.64
1018.90 1019.17 1019.40 1019.56 1019.63 1019.63 1019.60 1019.58 1019.63 1019.75 1019.96 1020.24 1020.54 1020.82 1021.03 1021.13 1021.12 1021.01 1020.82 1020.60 1020.38 1020.19 1020.06 1019.99 1019.95 1019.93 1019.89 1019.81 1019.69 1019.52 1019.30 1019.04 1018.76 1018.47 1018.15 1017.80 1017.42 1016.99 1016.51 1015.99 1015.44 1014.90 1014.37
1017.99 1018.34 1018.65 1018.87 1019.00 1019.04 1019.05 1019.08 1019.17 1019.37 1019.67 1020.04 1020.44 1020.81 1021.09 1021.24 1021.25 1021.15 1020.95 1020.71 1020.48 1020.29 1020.17 1020.10 1020.08 1020.08 1020.06 1020.00 1019.89 1019.73 1019.53 1019.32 1019.09 1018.87 1018.63 1018.38 1018.08 1017.72 1017.29 1016.79 1016.22 1015.63 1015.04
1017.00 1017.42 1017.81 1018.10 1018.29 1018.39 1018.45 1018.52 1018.68 1018.94 1019.31 1019.77 1020.25 1020.69 1021.03 1021.23 1021.27 1021.18 1020.99 1020.75 1020.52 1020.34 1020.22 1020.16 1020.15 1020.15 1020.13 1020.07 1019.97 1019.82 1019.64 1019.46 1019.29 1019.13 1018.98 1018.81 1018.60 1018.31 1017.92 1017.43 1016.85 1016.22 1015.57
1015.98 1016.47 1016.93 1017.30 1017.55 1017.72 1017.83 1017.96 1018.17 1018.49 1018.91 1019.42 1019.95 1020.45 1020.84 1021.08 1021.16 1021.10 1020.93 1020.72 1020.50 1020.33 1020.22 1020.17 1020.16 1020.16 1020.13 1020.06 1019.95 1019.80 1019.63 1019.48 1019.35 1019.25 1019.17 1019.07 1018.93 1018.69 1018.34 1017.86 1017.28 1016.61 1015.90
1015.02 1015.55 1016.07 1016.51 1016.84 1017.07 1017.24 1017.43 1017.67 1018.02 1018.48 1019.02 1019.58 1020.10 1020.53 1020.81 1020.93 1020.90 1020.78 1020.60 1020.42 1020.28 1020.18 1020.14 1020.12 1020.11 1020.07 1019.98 1019.85 1019.69 1019.53 1019.40 1019.30 1019.24 1019.20 1019.16 1019.06 1018.86 1018.53 1018.06 1017.46 1016.76 1016.01
1014.15 1014.71 1015.27 1015.77 1016.17 1016.47 1016.70 1016.93 1017.21 1017.58 1018.04 1018.58 1019.15 1019.68 1020.12 1020.43 1020.59 1020.62 1020.55 1020.42 1020.29 1020.17 1020.10 1020.06 1020.04 1020.01 1019.95 1019.84 1019.70 1019.53 1019.36 1019.23 1019.15 1019.11 1019.09 1019.07 1018.99 1018.81 1018.49 1018.02 1017.42 1016.70 1015.93
1013.40 1013.97 1014.57 1015.11 1015.56 1015.92 1016.21 1016.47 1016.78 1017.16 1017.62 1018.15 1018.70 1019.23 1019.67 1020.00 1020.20 1020.28 1020.26 1020.19 1020.10 1020.03 1019.98 1019.95 1019.92 1019.87 1019.78 1019.65 1019.48 1019.30 1019.13 1018.99 1018.91 1018.87 1018.86 1018.84 1018.76 1018.57 1018.25 1017.78 1017.17 1016.45 1015.68
1012.78 1013.34 1013.95 1014.52 1015.02 1015.43 1015.76 1016.08 1016.41 1016.79 1017.24 1017.75 1018.28 1018.79 1019.23 1019.57 1019.80 1019.92 1019.95 1019.93 1019.89 1019.85 1019.81 1019.78 1019.73 1019.66 1019.55 1019.39 1019.21 1019.01 1018.83 1018.69 1018.59 1018.54 1018.52 1018.48 1018.38 1018.18 1017.85 1017.37 1016.77 1016.06 1015.30
1012.29 1012.81 1013.41 1014.00 1014.54 1014.99 1015.38 1015.73 1016.09 1016.49 1016.93 1017.42 1017.92 1018.41 1018.84 1019.18 1019.43 1019.58 1019.65 1019.67 1019.65 1019.62 1019.59 1019.54 1019.47 1019.37 1019.23 1019.05 1018.85 1018.65 1018.46 1018.31 1018.20 1018.13 1018.08 1018.01 1017.88 1017.66 1017.31 1016.83 1016.23 1015.55 1014.82
1011.89 1012.38 1012.96 1013.55 1014.11 1014.60 1015.03 1015.44 1015.83 1016.25 1016.70 1017.17 1017.65 1018.11 1018.52 1018.86 1019.11 1019.27 1019.36 1019.40 1019.39 1019.36 1019.30 1019.23 1019.13 1018.99 1018.82 1018.63 1018.41 1018.20 1018.01 1017.85 1017.73 1017.64 1017.56 1017.45 1017.29 1017.03 1016.67 1016.19 1015.60 1014.95 1014.26
1011.57 1012.03 1012.58 1013.16 1013.73 1014.26 1014.74 1015.19 1015.63 1016.08 1016.54 1017.00 1017.47 1017.91 1018.29 1018.61 1018.85 1019.01 1019.09 1019.12 1019.10 1019.04 1018.95 1018.84 1018.70 1018.53 1018.33 1018.12 1017.90 1017.68 1017.49 1017.33 1017.20 1017.09 1016.98 1016.83 1016.63 1016.34 1015.95 1015.46 1014.90 1014.27 1013.62
1011.33 1011.75 1012.27 1012.84 1013.41 1013.97 1014.49 1014.99 1015.48 1015.96 1016.43 1016.90 1017.36 1017.77 1018.13 1018.42 1018.63 1018.76 1018.82 1018.82 1018.76 1018.67 1018.54 1018.38 1018.20 1017.99 1017.77 1017.54 1017.32 1017.11 1016.92 1016.77 1016.63 1016.49 1016.34 1016.16 1015.91 1015.59 1015.17 1014.67 1014.11 1013.50 1012.88
1011.14 1011.53 1012.02 1012.57 1013.14 1013.72 1014.28 1014.83 1015.36 1015.87 1016.37 1016.84 1017.28 1017.66 1017.99 1018.24 1018.41 1018.50 1018.52 1018.48 1018.38 1018.24 1018.06 1017.86 1017.64 1017.41 1017.17 1016.94 1016.72 1016.52 1016.34 1016.18 1016.02 1015.87 1015.68 1015.45 1015.16 1014.79 1014.34 1013.83 1013.25 1012.65 1012.05
1011.00 1011.37 1011.83 1012.36 1012.93 1013.52 1014.11 1014.69 1015.25 1015.79 1016.30 1016.77 1017.19 1017.54 1017.83 1018.03 1018.15 1018.19 1018.17 1018.08 1017.93 1017.75 1017.54 1017.31 1017.06 1016.81 1016.57 1016.34 1016.12 1015.93 1015.75 1015.59 1015.42 1015.24 1015.01 1014.74 1014.40 1013.98 1013.49 1012.94 1012.35 1011.74 1011.13
1010.91 1011.26 1011.70 1012.21 1012.77 1013.36 1013.97 1014.57 1015.16 1015.71 1016.22 1016.68 1017.07 1017.38 1017.62 1017.76 1017.83 1017.82 1017.74 1017.61 1017.43 1017.22 1016.98 1016.73 1016.47 1016.22 1015.98 1015.76 1015.55 1015.37 1015.19 1015.02 1014.83 1014.62 1014.35 1014.03 1013.64 1013.17 1012.63 1012.04 1011.42 1010.78 1010.15
1010.85 1011.19 1011.62 1012.12 1012.67 1013.26 1013.87 1014.48 1015.06 1015.62 1016.11 1016.54 1016.90 1017.16 1017.34 1017.42 1017.43 1017.37 1017.25 1017.08 1016.87 1016.64 1016.39 1016.14 1015.89 1015.65 1015.43 1015.22 1015.02 1014.84 1014.66 1014.48 1014.27 1014.02 1013.72 1013.35 1012.91 1012.40 1011.82 1011.18 1010.52 1009.83 1009.15
1010.83 1011.18 1011.61 1012.09 1012.63 1013.21 1013.81 1014.42 1014.99 1015.53 1016.00 1016.39 1016.68 1016.89 1017.00 1017.03 1016.98 1016.87 1016.70 1016.50 1016.28 1016.04 1015.80 1015.56 1015.32 1015.11 1014.90 1014.71 1014.52 1014.34 1014.16 1013.95 1013.72 1013.44 1013.11 1012.71 1012.23 1011.68 1011.07 1010.40 1009.69 1008.95 1008.21
1010.85 1011.23 1011.66 1012.14 1012.67 1013.24 1013.83 1014.42 1014.97 1015.47 1015.90 1016.23 1016.47 1016.61 1016.66 1016.62 1016.51 1016.35 1016.15 1015.92 1015.68 1015.44 1015.21 1014.99 1014.77 1014.58 1014.39 1014.21 1014.03 1013.85 1013.66 1013.44 1013.19 1012.89 1012.53 1012.11 1011.62 1011.06 1010.43 1009.73 1008.98 1008.20 1007.40
1010.92 1011.33 1011.78 1012.28 1012.81 1013.37 1013.94 1014.49 1015.01 1015.47 1015.85 1016.13 1016.30 1016.38 1016.36 1016.26 1016.09 1015.88 1015.64 1015.38 1015.13 1014.89 1014.66 1014.44 1014.25 1014.06 1013.89 1013.72 1013.55 1013.36 1013.16 1012.93 1012.67 1012.36 1012.00 1011.58 1011.10 1010.54 1009.91 1009.21 1008.44 1007.61 1006.74
1011.06 1011.51 1011.99 1012.50 1013.04 1013.59 1014.14 1014.66 1015.14 1015.55 1015.88 1016.10 1016.22 1016.23 1016.15 1015.98 1015.76 1015.50 1015.22 1014.94 1014.66 1014.40 1014.17 1013.95 1013.76 1013.58 1013.41 1013.24 1013.07 1012.88 1012.67 1012.44 1012.17 1011.87 1011.53 1011.13 1010.67 1010.14 1009.53 1008.83 1008.06 1007.20 1006.27
1011.25 1011.76 1012.28 1012.81 1013.35 1013.90 1014.43 1014.92 1015.36 1015.73 1016.00 1016.17 1016.23 1016.19 1016.06 1015.85 1015.58 1015.27 1014.95 1014.63 1014.32 1014.04 1013.78 1013.55 1013.34 1013.15 1012.97 1012.80 1012.62 1012.42 1012.21 1011.98 1011.73 1011.44 1011.12 1010.75 1010.33 1009.84 1009.27 1008.60 1007.82 1006.95 1005.97
1011.50 1012.07 1012.63 1013.19 1013.74 1014.28 1014.78 1015.25 1015.65 1015.97 1016.20 1016.33 1016.35 1016.27 1016.10 1015.85 1015.55 1015.20 1014.84 1014.48 1014.14 1013.81 1013.52 1013.26 1013.03 1012.82 1012.62 1012.43 1012.24 1012.04 1011.83 1011.60 1011.36 1011.10 1010.80 1010.47 1010.09 1009.64 1009.10 1008.46 1007.70 1006.81 1005.80
1011.80 1012.43 1013.03 1013.61 1014.17 1014.69 1015.17 1015.61 1015.97 1016.26 1016.45 1016.55 1016.55 1016.46 1016.27 1016.00 1015.68 1015.31 1014.91 1014.51 1014.13 1013.76 1013.43 1013.13 1012.85 1012.61 1012.39 1012.18 1011.97 1011.77 1011.56 1011.34 1011.11 1010.86 1010.59 1010.29 1009.94 1009.52 1009.00 1008.38 1007.62 1006.72 1005.69
1012.12 1012.81 1013.45 1014.05 1014.60 1015.11 1015.56 1015.96 1016.29 1016.55 1016.72 1016.81 1016.81 1016.71 1016.53 1016.27 1015.94 1015.55 1015.14 1014.71 1014.29 1013.88 1013.50 1013.15 1012.84 1012.56 1012.31 1012.09 1011.87 1011.66 1011.45 1011.23 1011.01 1010.76 1010.50 1010.20 1009.85 1009.43 1008.92 1008.30 1007.54 1006.63 1005.57
Thickness
5728 5728 5728 5726 5724 5722 5720 5718 5716 5714 5712 5709 5706 5703 5701 5701 5700 5700 5699 5698 5697 5696 5695 5693 5692 5691 5690 5688 5687 5686 5684 5682 5682 5680 5678 5679 5680 5680 5680 5680 5680 5680 5680
5723 5724 5724 5723 5722 5720 5718 5716 5714 5712 5710 5708 5705 5703 5700 5698 5697 5696 5695 5694 5693 5692 5691 5689 5687 5687 5685 5684 5683 5681 5678 5677 5677 5673 5669 5666 5668 5671 5674 5673 5674 5674 5675
5722 5721 5721 5720 5719 5717 5716 5715 5712 5710 5708 5706 5703 5699 5696 5693 5692 5691 5690 5690 5690 5688 5687 5685 5684 5682 5681 5679 5678 5677 5674 5671 5671 5670 5665 5659 5657 5659 5664 5666 5666 5667 5668
5722 5720 5719 5718 5717 5717 5716 5714 5711 5708 5705 5703 5699 5695 5691 5687 5687 5686 5686 5686 5686 5685 5683 5682 5680 5679 5677 5675 5674 5673 5671 5668 5665 5664 5663 5661 5658 5653 5652 5657 5659 5660 5661
5721 5719 5718 5718 5716 5715 5713 5711 5708 5705 5703 5700 5697 5693 5689 5687 5685 5683 5682 5682 5681 5680 5679 5678 5676 5674 5673 5671 5670 5668 5667 5665 5661 5659 5657 5655 5653 5651 5647 5646 5649 5652 5655
5719 5717 5716 5715 5713 5712 5710 5708 5704 5702 5700 5697 5694 5691 5687 5684 5681 5679 5677 5676 5675 5675 5674 5673 5672 5670 5668 5667 5666 5664 5662 5660 5658 5656 5653 5651 5649 5646 5644 5641 5641 5643 5647
5714 5712 5710 5709 5708 5707 5706 5704 5701 5698 5696 5693 5691 5688 5685 5682 5679 5676 5674 5672 5670 5669 5669 5668 5667 5665 5664 5663 5662 5660 5657 5656 5654 5652 5650 5648 5647 5646 5643 5640 5637 5637 5639
5709 5708 5707 5706 5705 5704 5703 5701 5698 5695 5692 5690 5687 5685 5682 5679 5676 5674 5672 5670 5668 5667 5666 5665 5663 5661 5660 5659 5657 5655 5653 5652 5650 5649 5647 5645 5644 5643 5641 5638 5634 5631 5631
5704 5703 5703 5702 5701 5700 5699 5698 5695 5691 5689 5686 5683 5680 5678 5676 5673 5671 5669 5667 5665 5664 5662 5660 5658 5656 5655 5654 5652 5650 5649 5647 5646 5644 5643 5641 5640 5639 5638 5637 5634 5629 5625
5698 5698 5698 5697 5696 5696 5694 5693 5690 5687 5685 5682 5679 5677 5674 5672 5669 5666 5664 5662 5661 5659 5657 5655 5654 5652 5650 5649 5647 5645 5644 5642 5641 5639 5638 5637 5636 5635 5634 5633 5631 5629 5625
5693 5693 5693 5693 5691 5690 5688 5686 5684 5682 5679 5677 5674 5672 5669 5667 5664 5661 5659 5658 5656 5654 5652 5651 5649 5647 5645 5644 5642 5640 5639 5637 5636 5634 5633 5632 5631 5629 5628 5628 5626 5624 5622
5689 5688 5688 5686 5684 5683 5681 5679 5678 5676 5674 5672 5669 5666 5664 5661 5659 5656 5654 5653 5651 5649 5647 5645 5643 5642 5641 5639 5637 5635 5634 5632 5630 5629 5628 5627 5626 5624 5623 5622 5621 5620 5618
5683 5681 5680 5679 5678 5677 5675 5673 5672 5670 5668 5667 5664 5660 5658 5655 5653 5651 5649 5647 5645 5643 5641 5639 5637 5636 5635 5633 5632 5631 5629 5627 5626 5624 5623 5622 5620 5619 5618 5617 5616 5615 5614
5676 5675 5672 5672 5672 5671 5669 5668 5666 5665 5663 5661 5658 5655 5652 5650 5648 5645 5643 5641 5639 5636 5634 5633 5631 5630 5628 5627 5626 5625 5623 5622 5620 5619 5619 5618 5616 5615 5614 5612 5611 5610 5608
5669 5669 5667 5666 5665 5664 5663 5662 5660 5659 5657 5654 5651 5649 5647 5645 5642 5639 5637 5635 5632 5631 5628 5626 5624 5623 5622 5621 5619 5618 5616 5615 5614 5613 5613 5613 5612 5612 5610 5609 5606 5605 5603
5663 5662 5662 5661 5659 5658 5657 5655 5654 5652 5651 5648 5645 5643 5640 5638 5635 5632 5630 5627 5625 5623 5620 5618 5617 5615 5615 5614 5613 5611 5610 5608 5607 5606 5606 5606 5606 5605 5605 5605 5603 5602 5599
5657 5656 5654 5654 5654 5653 5652 5650 5648 5646 5643 5641 5639 5636 5633 5631 5628 5626 5623 5620 5617 5615 5612 5611 5609 5608 5607 5607 5606 5604 5602 5601 5600 5598 5597 5598 5599 5598 5597 5597 5597 5596 5595
5651 5650 5649 5648 5648 5647 5646 5645 5643 5640 5637 5634 5632 5629 5627 5624 5621 5619 5616 5613 5611 5608 5605 5603 5602 5600 5600 5599 5598 5597 5595 5594 5592 5592 5591 5590 5590 5591 5590 5589 5589 5588 5587
5647 5645 5644 5643 5641 5640 5639 5637 5635 5633 5630 5628 5625 5623 5620 5617 5614 5611 5609 5607 5604 5601 5598 5596 5594 5591 5591 5591 5590 5589 5587 5585 5585 5585 5584 5583 5583 5584 5583 5582 5581 5580 5579
5641 5639 5637 5636 5634 5633 5632 5630 5628 5625 5624 5622 5620 5617 5614 5611 5608 5605 5602 5599 5596 5594 5591 5588 5585 5583 5582 5582 5582 5581 5578 5577 5576 5576 5576 5576 5576 5576 5575 5574 5572 5571 5571
5635 5633 5630 5628 5626 5626 5624 5622 5620 5619 5619 5617 5614 5610 5607 5604 5601 5598 5595 5591 5588 5585 5582 5579 5577 5575 5574 5573 5573 5572 5569 5568 5568 5568 5568 5568 5568 5568 5568 5567 5566 5565 5564
5625 5624 5622 5620 5620 5619 5617 5614 5613 5613 5612 5609 5605 5602 5600 5597 5595 5590 5586 5583 5579 5575 5572 5569 5567 5566 5566 5565 5564 5563 5562 5561 5559 5559 5560 5560 5561 5561 5560 5559 5559 5558 5555
5617 5616 5614 5612 5611 5611 5610 5608 5607 5605 5603 5599 5596 5593 5591 5588 5586 5581 5577 5574 5570 5566 5563 5560 5558 5557 5557 5556 5556 5555 5555 5554 5552 5552 5552 5552 5552 5552 5551 5551 5550 5548 5545
5608 5607 5606 5604 5603 5603 5602 5602 5599 5597 5594 5590 5587 5584 5581 5579 5576 5573 5569 5565 5561 5558 5555 5553 5550 5549 5548 5547 5547 5546 5545 5544 5543 5543 5543 5543 5543 5542 5542 5541 5540 5538 5537
5600 5598 5597 5596 5596 5595 5594 5593 5591 5588 5585 5582 5579 5576 5573 5570 5567 5564 5561 5558 5555 5552 5549 5546 5544 5542 5540 5541 5541 5538 5537 5536 5535 5533 5532 5531 5531 5531 5530 5530 5530 5528 5527
5592 5590 5589 5588 5588 5587 5585 5584 5582 5580 5577 5573 5570 5567 5564 5561 5558 5554 5551 5549 5547 5546 5544 5542 5539 5538 5537 5536 5534 5532 5531 5529 5527 5524 5522 5522 5522 5522 5522 5521 5520 5519 5519